METEOR 1-21

导读

METEOR 1-21是独联体(CIS,继承自前苏联)研制的第一代“流星”极轨气象卫星,于1975年4月1日发射升空。作为流星系列气象卫星的一员,它运行在近极轨道,主要用于观测全球天气系统、云量、冰盖积雪等,同时测量地-气系统的辐射特性,为气象预报提供基础观测数据,推动了早期全球气象监测体系的发展,是苏联气象卫星组网进程中的重要节点。

Basic Information
目录编号:
7714
目录名称:
METEOR 1-21
国际标识:
1975-023A
轨道中心:
EARTH
卫星名称:
METEOR 1-21
卫星全名:
--
卫星状态:
在轨 (已飞行18792 天)
发射日期:
1975-04-01 UTC
国别 :
俄罗斯(独联体) (CIS)
星等 :
--
This satellite is enrolled in the Space Conjunction Data Service (SCDS) and the current flight risk assessment level is: No High Risk
Orbit Information
数据来源 国际轨道数据
星历时间: 2026-09-12T00:45:46+0800
10小时前
查看轨道信息
半长轴: 7242.755km
偏心率: 0.0030073
轨道倾角: 81.189°
近地点辐角 109.720°
升交点赤经 145.011°
平近点角 250.722°
近地点: 842.836km
远地点: 886.4km
周期: 102.239分钟
每日圈数: 14.084684
Detailed Information
使用方式:
暂无
2D Orbit Map
3D Orbit Map
Orbit Altitude Analysis Chart
Orbit Inclination Analysis Chart
Orbit Comprehensive Analysis Chart
View Comprehensive Chart
Conjunction Data List
Event ID Objects TCA Miss Dist (km) Collision Risk Probability Collision Risk Index (CRI) Action
CDM_260912-135400-771403-405624
2026-09-12T
13:54:00+0000
1.805 km
极远距离
3.703693E-6 低风险 0.46
CDM_260913-220000-771403-963023
2026-09-13T
22:00:46+0000
2.054 km
极远距离
2.399308E-6 低风险 0.43
CDM_260913-170200-771401-265223
2026-09-13T
17:02:03+0000
2.767 km
极远距离
1.44548E-6 低风险 0.38
Miss Distance Evolution Trend with All Objects
Collision Probability Evolution Trend with All Objects